Location: Gallinara
(44.0333°N, 8.2333°E)
Time: 17:29:12
(UTC+00:00)

Okean 1 - Pass Details

Date: 25 September 2020
Orbit: 537 x 556 km, 82.5° (Epoch: 30 October)

Event Time Altitude Azimuth Distance (km) Brightness Sun altitude
Rises 04:37:54 0° 208° (SSW) 2,727 6.5 -8.0°
Reaches altitude 10° 04:40:12 10° 217° (SW) 1,836 5.6 -7.6°
Maximum altitude 04:43:55 35° 284° (WNW) 915 4.0 -7.0°
Drops below altitude 10° 04:47:39 10° 351° (N) 1,844 6.0 -6.3°
Sets 04:49:59 0° 1° (N) 2,741 6.9 -5.9°
